RADUGA-1 5 [-]

Last updated on June 27, 2019, 3:44 a.m. UTC

1 26477U 00049A   19177.78470512 -.00000306  00000-0  00000+0 0  9997
2 26477  12.4267  26.8902 0005090 350.5547 279.0377  1.00232530 68948
UTC
Height (km)
Latitude
Longitude
Inclination
Orbital Period
UTC large
Height (km)
Speed (km/s)
/
Latitude / Longitude
Inclination (degrees)
Orbital Period (minutes)
Azimuth
Elevation
Range (km)
Doppler Factor
iOS Compass Heading
iOS Angle

Next 30 passes for location: Hong Kong

Rise time Rise Azimuth (degrees) Set time Set Azimuth (degrees) Duration Max altitude (degrees)

No matching passes for this satellites